User: anonymous   Login
Location: *
(51.5000°N, 0.1100°W)
Time: 18:04:29
(UTC+00:00)
Language:

COSMOS 2406 - Orbit

View from above orbital plane
View from above orbital plane
View from above satellite
View from above satellite

Ground track
Ground track

The orbit data is extracted from the following two-line orbital elements,

1 28352U 04021A   24206.95868441  .00000260  00000-0  16818-3 0  9991
2 28352  71.0000 105.9345 0009584 131.2960 228.8987 14.11927164 36992
Epoch (UTC): 24 July 2024 23:00:30
Eccentricity: 0.0009584
inclination: 71.0000°
perigee height: 846 km
apogee height: 860 km
right ascension of ascending node: 105.9345°
argument of perigee: 131.2960°
revolutions per day: 14.11927164
mean anomaly at epoch: 228.8987°
orbit number at epoch: 3699

The dashed part of the orbit path shows where the satellite is in the earth's shadow,  

DLR